Time,TemperatureF,DewpointF,PressureIn,WindDirection,WindDirectionDegrees,WindSpeedMPH,WindSpeedGustMPH,Humidity,HourlyPrecipIn,Conditions,Clouds,dailyrainin,SolarRadiationWatts/m^2,SoftwareType,DateUTC
2013-11-22 00:02:00,27.5,26.3,30.50,WNW,303,4.0,12.0,95,0.00,,,0.00,0.00,VWS V14.01,2013-11-22 06:02:00,
2013-11-22 00:07:00,27.3,26.1,30.50,NNW,338,9.0,16.0,95,0.00,,,0.00,0.00,VWS V14.01,2013-11-22 06:07:00,
2013-11-22 00:12:00,27.2,26.0,30.50,NNW,328,6.0,10.0,95,0.00,,,0.00,0.00,VWS V14.01,2013-11-22 06:12:00,
2013-11-22 00:17:00,27.1,25.9,30.50,North,351,6.0,16.0,95,0.00,,,0.00,0.00,VWS V14.01,2013-11-22 06:17:00,
2013-11-22 00:22:00,27.0,25.8,30.50,NW,324,7.0,15.0,95,0.00,,,0.00,0.00,VWS V14.01,2013-11-22 06:22:00,
2013-11-22 00:27:00,26.9,25.7,30.51,NW,319,11.0,13.0,95,0.00,,,0.00,0.00,VWS V14.01,2013-11-22 06:27:00,
2013-11-22 00:32:00,26.8,25.6,30.51,North,351,8.0,15.0,95,0.00,,,0.00,0.00,VWS V14.01,2013-11-22 06:32:00,
2013-11-22 00:37:00,26.8,25.6,30.51,NW,319,7.0,14.0,95,0.00,,,0.00,0.00,VWS V14.01,2013-11-22 06:37:00,
2013-11-22 00:42:00,26.8,25.6,30.51,NW,325,5.0,9.0,95,0.00,,,0.00,0.00,VWS V14.01,2013-11-22 06:42:00,
2013-11-22 00:47:00,26.7,25.5,30.52,NNW,331,11.0,14.0,95,0.00,,,0.00,0.00,VWS V14.01,2013-11-22 06:47:00,
2013-11-22 00:53:00,26.7,25.5,30.52,NNW,348,5.0,11.0,95,0.00,,,0.00,0.00,VWS V14.01,2013-11-22 06:53:00,
2013-11-22 00:58:00,26.6,25.4,30.52,NW,312,12.0,12.0,95,0.00,,,0.00,0.00,VWS V14.01,2013-11-22 06:58:00,
2013-11-22 01:03:00,26.5,25.3,30.52,North,350,6.0,14.0,95,0.00,,,0.00,0.00,VWS V14.01,2013-11-22 07:03:00,
2013-11-22 01:08:00,26.5,25.3,30.52,NNW,333,7.0,12.0,95,0.00,,,0.00,0.00,VWS V14.01,2013-11-22 07:08:00,
2013-11-22 01:13:00,26.3,25.1,30.52,North,10,6.0,15.0,95,0.00,,,0.00,0.00,VWS V14.01,2013-11-22 07:13:00,
2013-11-22 01:18:00,26.2,25.0,30.52,North,356,7.0,12.0,95,0.00,,,0.00,0.00,VWS V14.01,2013-11-22 07:18:00,
2013-11-22 01:23:00,26.0,24.8,30.52,NNE,17,6.0,11.0,95,0.00,,,0.00,0.00,VWS V14.01,2013-11-22 07:23:00,
2013-11-22 01:28:00,25.8,24.3,30.53,North,360,10.0,14.0,94,0.00,,,0.00,0.00,VWS V14.01,2013-11-22 07:28:00,
2013-11-22 01:33:00,25.8,24.6,30.53,NNW,339,12.0,12.0,95,0.00,,,0.00,0.00,VWS V14.01,2013-11-22 07:33:00,
2013-11-22 01:38:00,25.7,24.5,30.53,NW,320,5.0,18.0,95,0.00,,,0.00,0.00,VWS V14.01,2013-11-22 07:38:00,
2013-11-22 01:43:00,25.7,24.5,30.53,NNW,330,4.0,12.0,95,0.00,,,0.00,0.00,VWS V14.01,2013-11-22 07:43:00,
2013-11-22 01:48:00,25.7,24.5,30.52,North,355,4.0,12.0,95,0.00,,,0.00,0.00,VWS V14.01,2013-11-22 07:48:00,
2013-11-22 01:53:00,25.6,24.4,30.53,North,360,6.0,13.0,95,0.00,,,0.00,0.00,VWS V14.01,2013-11-22 07:53:00,
2013-11-22 01:58:00,25.6,24.1,30.53,North,355,7.0,15.0,94,0.00,,,0.00,0.00,VWS V14.01,2013-11-22 07:58:00,
2013-11-22 02:03:00,25.5,24.0,30.53,NW,316,9.0,12.0,94,0.00,,,0.00,0.00,VWS V14.01,2013-11-22 08:03:00,
2013-11-22 02:08:00,25.5,24.0,30.54,NNW,336,6.0,13.0,94,0.00,,,0.00,0.00,VWS V14.01,2013-11-22 08:08:00,
2013-11-22 02:13:00,25.5,24.0,30.54,NNE,14,5.0,13.0,94,0.00,,,0.00,0.00,VWS V14.01,2013-11-22 08:13:00,
2013-11-22 02:18:00,25.4,23.9,30.54,NNW,345,7.0,13.0,94,0.00,,,0.00,0.00,VWS V14.01,2013-11-22 08:18:00,
2013-11-22 02:23:00,25.3,23.8,30.54,NNW,334,9.0,18.0,94,0.00,,,0.00,0.00,VWS V14.01,2013-11-22 08:23:00,
2013-11-22 02:28:00,25.3,23.8,30.54,NNW,332,9.0,15.0,94,0.00,,,0.00,0.00,VWS V14.01,2013-11-22 08:28:00,
2013-11-22 02:33:00,25.3,23.6,30.54,NW,326,6.0,11.0,93,0.00,,,0.00,0.00,VWS V14.01,2013-11-22 08:33:00,
2013-11-22 02:38:00,25.3,23.6,30.55,NNW,348,10.0,14.0,93,0.00,,,0.00,0.00,VWS V14.01,2013-11-22 08:38:00,
2013-11-22 02:43:00,25.3,23.3,30.55,North,5,11.0,13.0,92,0.00,,,0.00,0.00,VWS V14.01,2013-11-22 08:43:00,
2013-11-22 02:48:00,25.3,23.0,30.55,North,5,11.0,11.0,91,0.00,,,0.00,0.00,VWS V14.01,2013-11-22 08:48:00,
2013-11-22 02:53:00,25.3,23.0,30.55,NNW,348,6.0,12.0,91,0.00,,,0.00,0.00,VWS V14.01,2013-11-22 08:53:00,
2013-11-22 02:58:00,25.2,23.0,30.55,North,349,8.0,13.0,91,0.00,,,0.00,0.00,VWS V14.01,2013-11-22 08:58:00,
2013-11-22 03:03:00,25.2,23.0,30.55,NNW,334,4.0,10.0,91,0.00,,,0.00,0.00,VWS V14.01,2013-11-22 09:03:00,
2013-11-22 03:08:00,25.1,22.9,30.55,NNW,345,4.0,11.0,91,0.00,,,0.00,0.00,VWS V14.01,2013-11-22 09:08:00,
2013-11-22 03:13:00,25.1,22.9,30.56,North,349,11.0,11.0,91,0.00,,,0.00,0.00,VWS V14.01,2013-11-22 09:13:00,
2013-11-22 03:18:00,25.0,22.8,30.56,NNW,332,9.0,11.0,91,0.00,,,0.00,0.00,VWS V14.01,2013-11-22 09:18:00,
2013-11-22 03:23:00,24.9,22.4,30.56,NW,305,6.0,10.0,90,0.00,,,0.00,0.00,VWS V14.01,2013-11-22 09:23:00,
2013-11-22 03:28:00,24.7,22.2,30.56,North,10,2.0,10.0,90,0.00,,,0.00,0.00,VWS V14.01,2013-11-22 09:28:00,
2013-11-22 03:33:00,24.6,22.1,30.57,North,356,6.0,12.0,90,0.00,,,0.00,0.00,VWS V14.01,2013-11-22 09:33:00,
2013-11-22 03:38:00,24.4,21.9,30.57,NW,322,3.0,11.0,90,0.00,,,0.00,0.00,VWS V14.01,2013-11-22 09:38:00,
2013-11-22 03:43:00,24.3,21.8,30.57,NNW,331,5.0,11.0,90,0.00,,BKN055,0.00,0.00,VWS V14.01,2013-11-22 09:43:00,
2013-11-22 03:48:00,24.2,21.7,30.57,NNW,330,6.0,12.0,90,0.00,,BKN055,0.00,0.00,VWS V14.01,2013-11-22 09:48:00,
2013-11-22 03:53:00,24.2,21.7,30.57,North,350,5.0,8.0,90,0.00,,BKN055,0.00,0.00,VWS V14.01,2013-11-22 09:53:00,
2013-11-22 03:58:00,24.2,21.7,30.57,West,264,11.0,15.0,90,0.00,,BKN055,0.00,0.00,VWS V14.01,2013-11-22 09:58:00,
2013-11-22 04:03:00,24.2,21.7,30.57,NW,326,3.0,16.0,90,0.00,,OVC015,0.00,0.00,VWS V14.01,2013-11-22 10:03:00,
2013-11-22 04:08:00,24.2,21.7,30.58,NNW,334,4.0,12.0,90,0.00,,OVC015,0.00,0.00,VWS V14.01,2013-11-22 10:08:00,
2013-11-22 04:13:00,24.2,21.4,30.58,NNW,334,4.0,13.0,89,0.00,,OVC015,0.00,0.00,VWS V14.01,2013-11-22 10:13:00,
2013-11-22 04:18:00,24.2,21.7,30.58,NNE,18,7.0,12.0,90,0.00,,OVC015,0.00,0.00,VWS V14.01,2013-11-22 10:18:00,
2013-11-22 04:23:00,24.3,21.5,30.58,NNW,336,7.0,12.0,89,0.00,,OVC015,0.00,0.00,VWS V14.01,2013-11-22 10:23:00,
2013-11-22 04:28:00,24.3,21.5,30.58,NNW,332,6.0,9.0,89,0.00,,OVC015,0.00,0.00,VWS V14.01,2013-11-22 10:28:00,
2013-11-22 04:33:00,24.3,21.5,30.58,NNW,334,4.0,8.0,89,0.00,,OVC015,0.00,0.00,VWS V14.01,2013-11-22 10:33:00,
2013-11-22 04:38:00,24.3,21.5,30.58,NNW,333,10.0,12.0,89,0.00,,OVC015,0.00,0.00,VWS V14.01,2013-11-22 10:38:00,
2013-11-22 04:43:00,24.4,21.4,30.58,NNW,334,15.0,15.0,88,0.00,,OVC050,0.00,0.00,VWS V14.01,2013-11-22 10:43:00,
2013-11-22 04:48:00,24.4,21.4,30.58,North,349,6.0,13.0,88,0.00,,OVC050,0.00,0.00,VWS V14.01,2013-11-22 10:48:00,
2013-11-22 04:53:00,24.4,21.4,30.58,North,360,10.0,13.0,88,0.00,,OVC050,0.00,0.00,VWS V14.01,2013-11-22 10:53:00,
2013-11-22 04:58:00,24.4,21.4,30.58,North,360,6.0,10.0,88,0.00,,OVC050,0.00,0.00,VWS V14.01,2013-11-22 10:58:00,
2013-11-22 05:03:00,24.4,21.4,30.59,NNW,342,11.0,13.0,88,0.00,,OVC015,0.00,0.00,VWS V14.01,2013-11-22 11:03:00,
2013-11-22 05:09:00,24.4,21.4,30.59,NNW,337,7.0,15.0,88,0.00,,OVC015,0.00,0.00,VWS V14.01,2013-11-22 11:09:00,
2013-11-22 05:14:00,24.4,21.4,30.60,NNE,22,6.0,10.0,88,0.00,,OVC015,0.00,0.00,VWS V14.01,2013-11-22 11:14:00,
2013-11-22 05:19:00,24.4,21.4,30.60,NNW,341,5.0,14.0,88,0.00,,OVC015,0.00,0.00,VWS V14.01,2013-11-22 11:19:00,
2013-11-22 05:24:00,24.3,21.3,30.61,NW,309,6.0,14.0,88,0.00,,OVC015,0.00,0.00,VWS V14.01,2013-11-22 11:24:00,
2013-11-22 05:29:00,24.3,21.3,30.61,NW,326,5.0,13.0,88,0.00,,OVC015,0.00,0.00,VWS V14.01,2013-11-22 11:29:00,
2013-11-22 05:34:00,24.3,21.3,30.61,NNW,343,12.0,13.0,88,0.00,,OVC015,0.00,0.00,VWS V14.01,2013-11-22 11:34:00,
2013-11-22 05:39:00,24.2,21.2,30.61,NNW,328,5.0,15.0,88,0.00,,OVC015,0.00,0.00,VWS V14.01,2013-11-22 11:39:00,
2013-11-22 05:44:00,24.2,21.2,30.61,NNW,334,6.0,16.0,88,0.00,,OVC060,0.00,0.00,VWS V14.01,2013-11-22 11:44:00,
2013-11-22 05:49:00,24.0,21.0,30.61,NNW,332,9.0,11.0,88,0.00,,OVC060,0.00,0.00,VWS V14.01,2013-11-22 11:49:00,
2013-11-22 05:54:00,24.0,21.0,30.62,NW,317,8.0,13.0,88,0.00,,OVC060,0.00,0.00,VWS V14.01,2013-11-22 11:54:00,
2013-11-22 05:59:00,23.9,20.9,30.61,NNW,327,6.0,10.0,88,0.00,,OVC060,0.00,0.00,VWS V14.01,2013-11-22 11:59:00,
2013-11-22 06:04:00,23.7,20.7,30.62,NNW,332,10.0,14.0,88,0.00,,OVC060,0.00,0.00,VWS V14.01,2013-11-22 12:04:00,
2013-11-22 06:09:00,23.5,20.5,30.62,NNW,327,11.0,11.0,88,0.00,,OVC060,0.00,0.00,VWS V14.01,2013-11-22 12:09:00,
2013-11-22 06:14:00,23.1,19.8,30.62,North,5,7.0,14.0,87,0.00,,OVC060,0.00,0.00,VWS V14.01,2013-11-22 12:14:00,
2013-11-22 06:19:00,22.8,19.8,30.62,NNW,332,4.0,12.0,88,0.00,,OVC060,0.00,0.00,VWS V14.01,2013-11-22 12:19:00,
2013-11-22 06:24:00,22.4,19.1,30.62,NNW,347,4.0,11.0,87,0.00,,OVC060,0.00,0.00,VWS V14.01,2013-11-22 12:24:00,
2013-11-22 06:29:00,22.0,19.0,30.63,NW,320,4.0,9.0,88,0.00,,OVC060,0.00,0.00,VWS V14.01,2013-11-22 12:29:00,
2013-11-22 06:34:00,21.8,18.8,30.63,North,350,7.0,10.0,88,0.00,,OVC060,0.00,0.00,VWS V14.01,2013-11-22 12:34:00,
2013-11-22 06:39:00,21.5,18.5,30.63,NW,326,7.0,9.0,88,0.00,,OVC060,0.00,0.00,VWS V14.01,2013-11-22 12:39:00,
2013-11-22 06:44:00,21.3,18.3,30.64,NNW,347,5.0,11.0,88,0.00,,OVC015,0.00,0.00,VWS V14.01,2013-11-22 12:44:00,
2013-11-22 06:49:00,21.0,17.8,30.63,NNW,338,6.0,10.0,87,0.00,,OVC015,0.00,0.00,VWS V14.01,2013-11-22 12:49:00,
2013-11-22 06:54:00,20.9,17.6,30.64,North,360,5.0,11.0,87,0.00,,OVC015,0.00,0.00,VWS V14.01,2013-11-22 12:54:00,
2013-11-22 06:59:00,20.7,17.5,30.63,NNW,335,9.0,11.0,87,0.00,,OVC015,0.00,0.00,VWS V14.01,2013-11-22 12:59:00,
2013-11-22 07:04:00,20.6,17.4,30.64,NNW,347,4.0,10.0,87,0.00,,OVC015,0.00,0.00,VWS V14.01,2013-11-22 13:04:00,
2013-11-22 07:09:00,20.4,17.2,30.64,NNW,343,4.0,7.0,87,0.00,,OVC015,0.00,0.00,VWS V14.01,2013-11-22 13:09:00,
2013-11-22 07:14:00,20.2,17.0,30.64,NNW,330,4.0,9.0,87,0.00,,OVC015,0.00,0.00,VWS V14.01,2013-11-22 13:14:00,
2013-11-22 07:19:00,20.1,16.9,30.65,NW,320,4.0,10.0,87,0.00,,OVC015,0.00,0.00,VWS V14.01,2013-11-22 13:19:00,
2013-11-22 07:24:00,20.0,16.8,30.65,NW,316,6.0,9.0,87,0.00,,OVC015,0.00,0.00,VWS V14.01,2013-11-22 13:24:00,
2013-11-22 07:29:00,19.9,16.7,30.66,NNW,332,0.0,11.0,87,0.00,,OVC015,0.00,0.00,VWS V14.01,2013-11-22 13:29:00,
2013-11-22 07:34:00,20.0,16.8,30.66,NW,324,4.0,9.0,87,0.00,,OVC015,0.00,0.00,VWS V14.01,2013-11-22 13:34:00,
2013-11-22 07:39:00,20.1,16.6,30.65,NW,326,1.0,7.0,86,0.00,,OVC015,0.00,0.00,VWS V14.01,2013-11-22 13:39:00,
2013-11-22 07:44:00,20.1,16.6,30.66,NNW,331,4.0,7.0,86,0.00,,SCT015,0.00,0.00,VWS V14.01,2013-11-22 13:44:00,
2013-11-22 07:49:00,20.2,16.7,30.66,West,275,6.0,6.0,86,0.00,,SCT015,0.00,0.00,VWS V14.01,2013-11-22 13:49:00,
2013-11-22 07:54:00,20.2,16.7,30.66,NNW,328,1.0,6.0,86,0.00,,SCT015,0.00,0.00,VWS V14.01,2013-11-22 13:54:00,
2013-11-22 07:59:00,20.3,16.8,30.66,NNW,341,3.0,5.0,86,0.00,,SCT015,0.00,0.00,VWS V14.01,2013-11-22 13:59:00,
2013-11-22 08:04:00,20.4,16.6,30.66,NNW,335,3.0,9.0,85,0.00,,CLR,0.00,0.00,VWS V14.01,2013-11-22 14:04:00,
2013-11-22 08:09:00,20.4,16.6,30.66,NNW,347,3.0,11.0,85,0.00,,CLR,0.00,0.00,VWS V14.01,2013-11-22 14:09:00,
2013-11-22 08:14:00,20.4,16.6,30.66,NNW,334,4.0,5.0,85,0.00,,CLR,0.00,0.00,VWS V14.01,2013-11-22 14:14:00,
2013-11-22 08:19:00,20.3,16.5,30.66,NW,324,8.0,9.0,85,0.00,,CLR,0.00,0.00,VWS V14.01,2013-11-22 14:19:00,
2013-11-22 08:24:00,20.4,16.6,30.65,NNW,334,4.0,9.0,85,0.00,,CLR,0.00,0.00,VWS V14.01,2013-11-22 14:24:00,
2013-11-22 08:29:00,20.4,16.6,30.66,North,354,6.0,8.0,85,0.00,,CLR,0.00,0.00,VWS V14.01,2013-11-22 14:29:00,
2013-11-22 08:34:00,20.5,16.7,30.66,NNW,336,3.0,6.0,85,0.00,,CLR,0.00,0.00,VWS V14.01,2013-11-22 14:34:00,
2013-11-22 08:39:00,20.6,16.5,30.66,NNW,337,5.0,7.0,84,0.00,,CLR,0.00,0.00,VWS V14.01,2013-11-22 14:39:00,
2013-11-22 08:44:00,20.6,16.5,30.66,NW,324,6.0,9.0,84,0.00,,CLR,0.00,0.00,VWS V14.01,2013-11-22 14:44:00,
2013-11-22 08:49:00,20.7,16.6,30.66,NW,305,7.0,7.0,84,0.00,,CLR,0.00,0.00,VWS V14.01,2013-11-22 14:49:00,
2013-11-22 08:54:00,20.8,16.5,30.66,North,351,4.0,10.0,83,0.00,,CLR,0.00,0.00,VWS V14.01,2013-11-22 14:54:00,
2013-11-22 08:59:00,21.0,16.9,30.66,North,350,4.0,9.0,84,0.00,,CLR,0.00,0.00,VWS V14.01,2013-11-22 14:59:00,
2013-11-22 09:04:00,21.1,16.8,30.66,North,5,3.0,8.0,83,0.00,,CLR,0.00,0.00,VWS V14.01,2013-11-22 15:04:00,
2013-11-22 09:09:00,21.3,17.2,30.66,NNE,14,6.0,10.0,84,0.00,,CLR,0.00,0.00,VWS V14.01,2013-11-22 15:09:00,
2013-11-22 09:14:00,21.6,17.5,30.66,NNW,347,6.0,10.0,84,0.00,,CLR,0.00,0.00,VWS V14.01,2013-11-22 15:14:00,
2013-11-22 09:19:00,21.7,17.3,30.66,NNW,344,5.0,11.0,83,0.00,,CLR,0.00,0.00,VWS V14.01,2013-11-22 15:19:00,
2013-11-22 09:24:00,21.8,17.2,30.67,North,5,7.0,7.0,82,0.00,,CLR,0.00,0.00,VWS V14.01,2013-11-22 15:24:00,
2013-11-22 09:29:00,22.3,18.2,30.67,North,360,3.0,5.0,84,0.00,,CLR,0.00,0.00,VWS V14.01,2013-11-22 15:29:00,
2013-11-22 09:34:00,22.6,18.2,30.67,NNW,344,5.0,6.0,83,0.00,,CLR,0.00,0.00,VWS V14.01,2013-11-22 15:34:00,
2013-11-22 09:39:00,23.0,18.3,30.66,North,360,4.0,4.0,82,0.00,,CLR,0.00,0.00,VWS V14.01,2013-11-22 15:39:00,
2013-11-22 09:45:00,23.2,18.5,30.66,North,360,5.0,5.0,82,0.00,,CLR,0.00,0.00,VWS V14.01,2013-11-22 15:45:00,
2013-11-22 09:50:00,23.4,19.0,30.66,NNW,336,3.0,6.0,83,0.00,,CLR,0.00,0.00,VWS V14.01,2013-11-22 15:50:00,
2013-11-22 09:55:00,23.7,18.7,30.66,NNW,338,3.0,5.0,81,0.00,,CLR,0.00,0.00,VWS V14.01,2013-11-22 15:55:00,
2013-11-22 10:00:00,23.7,18.5,30.66,NW,324,3.0,9.0,80,0.00,,CLR,0.00,0.00,VWS V14.01,2013-11-22 16:00:00,
2013-11-22 10:05:00,23.8,18.8,30.67,NNW,337,5.0,6.0,81,0.00,,CLR,0.00,0.00,VWS V14.01,2013-11-22 16:05:00,
2013-11-22 10:10:00,24.1,18.8,30.67,NW,323,3.0,6.0,80,0.00,,CLR,0.00,0.00,VWS V14.01,2013-11-22 16:10:00,
2013-11-22 10:15:00,24.3,19.3,30.67,North,360,0.0,6.0,81,0.00,,CLR,0.00,0.00,VWS V14.01,2013-11-22 16:15:00,
2013-11-22 10:20:00,24.5,19.2,30.68,NNW,337,5.0,6.0,80,0.00,,CLR,0.00,0.00,VWS V14.01,2013-11-22 16:20:00,
2013-11-22 10:25:00,24.6,19.0,30.69,WNW,297,4.0,12.0,79,0.00,,CLR,0.00,0.00,VWS V14.01,2013-11-22 16:25:00,
2013-11-22 10:30:00,24.7,19.7,30.70,NW,321,7.0,11.0,81,0.00,,CLR,0.00,0.00,VWS V14.01,2013-11-22 16:30:00,
2013-11-22 10:35:00,24.7,19.7,30.71,North,360,7.0,8.0,81,0.00,,CLR,0.00,0.00,VWS V14.01,2013-11-22 16:35:00,
2013-11-22 10:40:00,24.7,19.7,30.71,North,352,11.0,14.0,81,0.00,,CLR,0.00,0.00,VWS V14.01,2013-11-22 16:40:00,
2013-11-22 10:45:00,24.5,19.5,30.72,North,360,4.0,10.0,81,0.00,,CLR,0.00,0.00,VWS V14.01,2013-11-22 16:45:00,
2013-11-22 10:50:00,24.1,19.1,30.72,WNW,297,5.0,11.0,81,0.00,,CLR,0.00,0.00,VWS V14.01,2013-11-22 16:50:00,
2013-11-22 10:55:00,24.0,18.7,30.72,North,10,13.0,13.0,80,0.00,,CLR,0.00,0.00,VWS V14.01,2013-11-22 16:55:00,
2013-11-22 11:00:00,23.6,18.6,30.73,NW,317,9.0,11.0,81,0.00,,CLR,0.00,0.00,VWS V14.01,2013-11-22 17:00:00,
2013-11-22 11:05:00,23.3,17.8,30.72,NW,315,10.0,18.0,79,0.00,,CLR,0.00,0.00,VWS V14.01,2013-11-22 17:05:00,
2013-11-22 11:10:00,23.1,18.1,30.72,North,5,7.0,13.0,81,0.00,,CLR,0.00,0.00,VWS V14.01,2013-11-22 17:10:00,
2013-11-22 11:15:00,22.9,18.0,30.72,NNW,341,2.0,13.0,81,0.00,,CLR,0.00,0.00,VWS V14.01,2013-11-22 17:15:00,
2013-11-22 11:20:00,22.6,17.7,30.72,North,5,5.0,11.0,81,0.00,,CLR,0.00,0.00,VWS V14.01,2013-11-22 17:20:00,
2013-11-22 11:25:00,22.4,17.5,30.71,NNW,338,12.0,14.0,81,0.00,,CLR,0.00,0.00,VWS V14.01,2013-11-22 17:25:00,
2013-11-22 11:30:00,22.5,17.9,30.71,NNW,348,10.0,13.0,82,0.00,,CLR,0.00,0.00,VWS V14.01,2013-11-22 17:30:00,
2013-11-22 11:35:00,22.4,17.8,30.71,NW,309,0.0,7.0,82,0.00,,CLR,0.00,0.00,VWS V14.01,2013-11-22 17:35:00,
2013-11-22 11:40:00,22.6,17.7,30.71,NNW,333,7.0,10.0,81,0.00,,CLR,0.00,0.00,VWS V14.01,2013-11-22 17:40:00,
2013-11-22 11:45:00,22.9,18.0,30.71,North,360,3.0,8.0,81,0.00,,CLR,0.00,0.00,VWS V14.01,2013-11-22 17:45:00,
2013-11-22 11:50:00,23.1,18.4,30.71,NNW,337,6.0,10.0,82,0.00,,SCT013,0.00,0.00,VWS V14.01,2013-11-22 17:50:00,
2013-11-22 11:55:00,23.4,18.7,30.71,NNW,330,3.0,5.0,82,0.00,,SCT013,0.00,0.00,VWS V14.01,2013-11-22 17:55:00,
2013-11-22 12:00:00,23.5,18.5,30.71,NW,306,7.0,12.0,81,0.00,,SCT013,0.00,0.00,VWS V14.01,2013-11-22 18:00:00,
2013-11-22 12:05:00,23.8,18.8,30.70,North,360,8.0,13.0,81,0.00,,SCT013,0.00,0.00,VWS V14.01,2013-11-22 18:05:00,
2013-11-22 12:10:00,23.9,18.9,30.71,North,10,7.0,11.0,81,0.00,,SCT013,0.00,0.00,VWS V14.01,2013-11-22 18:10:00,
2013-11-22 12:15:00,24.1,18.8,30.71,NW,319,9.0,12.0,80,0.00,,SCT013,0.00,0.00,VWS V14.01,2013-11-22 18:15:00,
2013-11-22 12:20:00,24.0,18.7,30.71,NW,323,5.0,9.0,80,0.00,,SCT013,0.00,0.00,VWS V14.01,2013-11-22 18:20:00,
2013-11-22 12:25:00,23.8,18.5,30.71,NNW,336,3.0,7.0,80,0.00,,SCT013,0.00,0.00,VWS V14.01,2013-11-22 18:25:00,
2013-11-22 12:30:00,24.2,19.5,30.71,NW,317,3.0,9.0,82,0.00,,SCT013,0.00,0.00,VWS V14.01,2013-11-22 18:30:00,
2013-11-22 12:35:00,24.3,19.3,30.71,NW,318,4.0,9.0,81,0.00,,SCT013,0.00,0.00,VWS V14.01,2013-11-22 18:35:00,
2013-11-22 12:40:00,24.4,19.4,30.71,NW,324,4.0,11.0,81,0.00,,SCT013,0.00,0.00,VWS V14.01,2013-11-22 18:40:00,
2013-11-22 12:45:00,24.5,19.5,30.71,NNW,347,3.0,10.0,81,0.00,,SCT013,0.00,0.00,VWS V14.01,2013-11-22 18:45:00,
2013-11-22 12:50:00,24.4,19.1,30.71,NW,305,8.0,13.0,80,0.00,,CLR,0.00,0.00,VWS V14.01,2013-11-22 18:50:00,
2013-11-22 12:55:00,24.5,19.5,30.72,NW,318,13.0,13.0,81,0.00,,CLR,0.00,0.00,VWS V14.01,2013-11-22 18:55:00,
2013-11-22 13:00:00,24.4,19.4,30.72,NNW,329,3.0,11.0,81,0.00,,CLR,0.00,0.00,VWS V14.01,2013-11-22 19:00:00,
2013-11-22 13:05:00,24.5,19.5,30.72,NNW,330,4.0,7.0,81,0.00,,CLR,0.00,0.00,VWS V14.01,2013-11-22 19:05:00,
2013-11-22 13:10:00,24.1,19.1,30.72,NNW,346,9.0,14.0,81,0.00,,CLR,0.00,0.00,VWS V14.01,2013-11-22 19:10:00,
2013-11-22 13:15:00,24.1,19.4,30.72,NW,318,7.0,11.0,82,0.00,,CLR,0.00,0.00,VWS V14.01,2013-11-22 19:15:00,
2013-11-22 13:21:00,24.0,19.0,30.72,NNW,333,6.0,15.0,81,0.00,,CLR,0.00,0.00,VWS V14.01,2013-11-22 19:21:00,
2013-11-22 13:26:00,23.8,18.8,30.72,NNW,334,3.0,10.0,81,0.00,,CLR,0.00,0.00,VWS V14.01,2013-11-22 19:26:00,
2013-11-22 13:31:00,23.8,18.5,30.72,NW,314,5.0,14.0,80,0.00,,CLR,0.00,0.00,VWS V14.01,2013-11-22 19:31:00,
2013-11-22 13:36:00,24.0,19.0,30.72,WNW,286,5.0,11.0,81,0.00,,CLR,0.00,0.00,VWS V14.01,2013-11-22 19:36:00,
2013-11-22 13:41:00,24.1,18.8,30.72,NW,315,2.0,13.0,80,0.00,,CLR,0.00,0.00,VWS V14.01,2013-11-22 19:41:00,
2013-11-22 13:46:00,24.2,18.9,30.72,WNW,284,5.0,11.0,80,0.00,,CLR,0.00,0.00,VWS V14.01,2013-11-22 19:46:00,
2013-11-22 13:51:00,24.3,19.3,30.72,NW,321,3.0,7.0,81,0.00,,CLR,0.00,0.00,VWS V14.01,2013-11-22 19:51:00,
2013-11-22 13:56:00,24.1,18.8,30.72,NNW,332,10.0,13.0,80,0.00,,CLR,0.00,0.00,VWS V14.01,2013-11-22 19:56:00,
2013-11-22 14:01:00,24.0,18.5,30.72,West,280,6.0,13.0,79,0.00,,CLR,0.00,0.00,VWS V14.01,2013-11-22 20:01:00,
2013-11-22 14:06:00,24.3,18.7,30.72,NW,312,8.0,11.0,79,0.00,,CLR,0.00,0.00,VWS V14.01,2013-11-22 20:06:00,
2013-11-22 14:11:00,24.5,18.9,30.71,North,10,9.0,14.0,79,0.00,,CLR,0.00,0.00,VWS V14.01,2013-11-22 20:11:00,
2013-11-22 14:16:00,24.6,19.3,30.72,North,5,4.0,6.0,80,0.00,,CLR,0.00,0.00,VWS V14.01,2013-11-22 20:16:00,
2013-11-22 14:21:00,24.7,18.8,30.71,NW,311,6.0,13.0,78,0.00,,CLR,0.00,0.00,VWS V14.01,2013-11-22 20:21:00,
2013-11-22 14:26:00,24.7,18.8,30.71,North,349,10.0,13.0,78,0.00,,CLR,0.00,0.00,VWS V14.01,2013-11-22 20:26:00,
2013-11-22 14:31:00,24.8,18.9,30.71,NNW,343,4.0,12.0,78,0.00,,CLR,0.00,0.00,VWS V14.01,2013-11-22 20:31:00,
2013-11-22 14:36:00,24.9,18.4,30.71,North,360,6.0,15.0,76,0.00,,CLR,0.00,0.00,VWS V14.01,2013-11-22 20:36:00,
2013-11-22 14:41:00,25.0,18.8,30.71,NNW,336,6.0,10.0,77,0.00,,CLR,0.00,0.00,VWS V14.01,2013-11-22 20:41:00,
2013-11-22 14:46:00,25.2,18.7,30.70,WNW,295,10.0,10.0,76,0.00,,CLR,0.00,0.00,VWS V14.01,2013-11-22 20:46:00,
2013-11-22 14:51:00,25.2,18.7,30.71,West,276,6.0,7.0,76,0.00,,CLR,0.00,0.00,VWS V14.01,2013-11-22 20:51:00,
2013-11-22 14:56:00,25.2,18.4,30.71,NW,322,0.0,7.0,75,0.00,,CLR,0.00,0.00,VWS V14.01,2013-11-22 20:56:00,
2013-11-22 15:01:00,25.0,17.9,30.71,North,10,12.0,12.0,74,0.00,,CLR,0.00,0.00,VWS V14.01,2013-11-22 21:01:00,
2013-11-22 15:06:00,25.0,18.2,30.70,NW,324,4.0,5.0,75,0.00,,CLR,0.00,0.00,VWS V14.01,2013-11-22 21:06:00,
2013-11-22 15:11:00,25.2,18.1,30.70,WNW,301,3.0,9.0,74,0.00,,CLR,0.00,0.00,VWS V14.01,2013-11-22 21:11:00,
2013-11-22 15:16:00,25.2,17.8,30.70,NNW,327,6.0,10.0,73,0.00,,CLR,0.00,0.00,VWS V14.01,2013-11-22 21:16:00,
2013-11-22 15:21:00,25.2,17.5,30.70,NW,319,5.0,6.0,72,0.00,,CLR,0.00,0.00,VWS V14.01,2013-11-22 21:21:00,
2013-11-22 15:26:00,25.1,17.7,30.70,NNW,332,4.0,7.0,73,0.00,,CLR,0.00,0.00,VWS V14.01,2013-11-22 21:26:00,
2013-11-22 15:31:00,25.4,18.3,30.70,NNW,331,1.0,4.0,74,0.00,,CLR,0.00,0.00,VWS V14.01,2013-11-22 21:31:00,
2013-11-22 15:36:00,25.6,18.5,30.70,North,356,4.0,7.0,74,0.00,,CLR,0.00,0.00,VWS V14.01,2013-11-22 21:36:00,
2013-11-22 15:41:00,25.7,18.3,30.70,NNW,328,9.0,9.0,73,0.00,,CLR,0.00,0.00,VWS V14.01,2013-11-22 21:41:00,
2013-11-22 15:46:00,25.5,18.1,30.70,NW,326,5.0,7.0,73,0.00,,CLR,0.00,0.00,VWS V14.01,2013-11-22 21:46:00,
2013-11-22 15:51:00,25.4,17.6,30.70,WNW,294,4.0,6.0,72,0.00,,CLR,0.00,0.00,VWS V14.01,2013-11-22 21:51:00,
2013-11-22 15:56:00,25.2,17.1,30.70,WNW,290,4.0,10.0,71,0.00,,CLR,0.00,0.00,VWS V14.01,2013-11-22 21:56:00,
2013-11-22 16:01:00,25.0,17.3,30.70,NW,320,7.0,7.0,72,0.00,,CLR,0.00,0.00,VWS V14.01,2013-11-22 22:01:00,
2013-11-22 16:06:00,25.0,17.9,30.69,NNW,331,4.0,6.0,74,0.00,,CLR,0.00,0.00,VWS V14.01,2013-11-22 22:06:00,
2013-11-22 16:11:00,24.9,18.1,30.70,NW,318,2.0,10.0,75,0.00,,CLR,0.00,0.00,VWS V14.01,2013-11-22 22:11:00,
2013-11-22 16:16:00,24.7,18.5,30.69,NW,319,2.0,5.0,77,0.00,,CLR,0.00,0.00,VWS V14.01,2013-11-22 22:16:00,
2013-11-22 16:21:00,24.5,18.6,30.70,WNW,303,4.0,5.0,78,0.00,,CLR,0.00,0.00,VWS V14.01,2013-11-22 22:21:00,
2013-11-22 16:26:00,24.2,18.3,30.69,WNW,284,4.0,4.0,78,0.00,,CLR,0.00,0.00,VWS V14.01,2013-11-22 22:26:00,
2013-11-22 16:31:00,24.0,18.5,30.69,West,278,1.0,4.0,79,0.00,,CLR,0.00,0.00,VWS V14.01,2013-11-22 22:31:00,
2013-11-22 16:36:00,23.8,18.2,30.69,WNW,293,3.0,3.0,79,0.00,,CLR,0.00,0.00,VWS V14.01,2013-11-22 22:36:00,
2013-11-22 16:41:00,23.5,18.0,30.69,NW,316,1.0,5.0,79,0.00,,CLR,0.00,0.00,VWS V14.01,2013-11-22 22:41:00,
2013-11-22 16:46:00,23.2,18.0,30.69,NW,314,1.0,4.0,80,0.00,,CLR,0.00,0.00,VWS V14.01,2013-11-22 22:46:00,
2013-11-22 16:51:00,22.9,17.7,30.69,NW,314,0.0,2.0,80,0.00,,CLR,0.00,0.00,VWS V14.01,2013-11-22 22:51:00,
2013-11-22 16:56:00,22.7,17.5,30.69,NW,316,2.0,3.0,80,0.00,,CLR,0.00,0.00,VWS V14.01,2013-11-22 22:56:00,
2013-11-22 17:01:00,22.4,17.2,30.69,NW,316,2.0,3.0,80,0.00,,CLR,0.00,0.00,VWS V14.01,2013-11-22 23:01:00,
2013-11-22 17:06:00,22.2,17.0,30.69,NW,319,0.0,4.0,80,0.00,,CLR,0.00,0.00,VWS V14.01,2013-11-22 23:06:00,
2013-11-22 17:11:00,22.0,16.5,30.68,NW,322,1.0,2.0,79,0.00,,CLR,0.00,0.00,VWS V14.01,2013-11-22 23:11:00,
2013-11-22 17:16:00,21.7,16.5,30.68,NW,322,0.0,1.0,80,0.00,,CLR,0.00,0.00,VWS V14.01,2013-11-22 23:16:00,
2013-11-22 17:21:00,21.3,16.1,30.68,NW,325,3.0,3.0,80,0.00,,CLR,0.00,0.00,VWS V14.01,2013-11-22 23:21:00,
2013-11-22 17:26:00,21.1,15.6,30.68,NW,326,0.0,2.0,79,0.00,,CLR,0.00,0.00,VWS V14.01,2013-11-22 23:26:00,
2013-11-22 17:31:00,20.9,15.4,30.68,NW,326,0.0,0.0,79,0.00,,CLR,0.00,0.00,VWS V14.01,2013-11-22 23:31:00,
2013-11-22 17:36:00,20.8,15.3,30.68,NW,326,0.0,1.0,79,0.00,,CLR,0.00,0.00,VWS V14.01,2013-11-22 23:36:00,
2013-11-22 17:41:00,20.5,15.3,30.68,NW,326,0.0,1.0,80,0.00,,CLR,0.00,0.00,VWS V14.01,2013-11-22 23:41:00,
2013-11-22 17:46:00,20.2,15.0,30.68,NW,326,0.0,0.0,80,0.00,,CLR,0.00,0.00,VWS V14.01,2013-11-22 23:46:00,
2013-11-22 17:52:00,19.9,14.7,30.68,NW,326,0.0,0.0,80,0.00,,CLR,0.00,0.00,VWS V14.01,2013-11-22 23:52:00,
2013-11-22 17:57:00,19.4,14.5,30.68,NW,326,0.0,0.0,81,0.00,,CLR,0.00,0.00,VWS V14.01,2013-11-22 23:57:00,
2013-11-22 18:02:00,19.3,14.7,30.68,NW,326,0.0,1.0,82,0.00,,CLR,0.00,0.00,VWS V14.01,2013-11-23 00:02:00,
2013-11-22 18:07:00,19.1,14.8,30.68,NW,326,0.0,0.0,83,0.00,,CLR,0.00,0.00,VWS V14.01,2013-11-23 00:07:00,
2013-11-22 18:12:00,19.0,14.7,30.68,NW,326,0.0,0.0,83,0.00,,CLR,0.00,0.00,VWS V14.01,2013-11-23 00:12:00,
2013-11-22 18:17:00,18.7,14.4,30.67,NW,326,0.0,0.0,83,0.00,,CLR,0.00,0.00,VWS V14.01,2013-11-23 00:17:00,
2013-11-22 18:22:00,18.4,14.4,30.67,NW,326,0.0,0.0,84,0.00,,CLR,0.00,0.00,VWS V14.01,2013-11-23 00:22:00,
2013-11-22 18:27:00,18.3,14.3,30.67,NW,326,0.0,0.0,84,0.00,,CLR,0.00,0.00,VWS V14.01,2013-11-23 00:27:00,
2013-11-22 18:32:00,18.4,14.4,30.67,NW,326,0.0,2.0,84,0.00,,CLR,0.00,0.00,VWS V14.01,2013-11-23 00:32:00,
2013-11-22 18:37:00,18.5,14.5,30.68,NW,326,0.0,1.0,84,0.00,,CLR,0.00,0.00,VWS V14.01,2013-11-23 00:37:00,
2013-11-22 18:42:00,18.4,14.4,30.67,NW,326,0.0,1.0,84,0.00,,CLR,0.00,0.00,VWS V14.01,2013-11-23 00:42:00,
2013-11-22 18:47:00,18.4,14.4,30.67,NW,326,0.0,0.0,84,0.00,,CLR,0.00,0.00,VWS V14.01,2013-11-23 00:47:00,
2013-11-22 18:52:00,18.5,14.5,30.67,NW,326,1.0,1.0,84,0.00,,CLR,0.00,0.00,VWS V14.01,2013-11-23 00:52:00,
2013-11-22 18:57:00,18.5,14.5,30.67,NW,326,0.0,1.0,84,0.00,,CLR,0.00,0.00,VWS V14.01,2013-11-23 00:57:00,
2013-11-22 19:02:00,18.5,14.5,30.67,NW,326,0.0,0.0,84,0.00,,CLR,0.00,0.00,VWS V14.01,2013-11-23 01:02:00,
2013-11-22 19:07:00,18.3,14.3,30.67,NW,326,1.0,2.0,84,0.00,,CLR,0.00,0.00,VWS V14.01,2013-11-23 01:07:00,
2013-11-22 19:12:00,18.1,14.4,30.67,NW,326,0.0,1.0,85,0.00,,CLR,0.00,0.00,VWS V14.01,2013-11-23 01:12:00,
2013-11-22 19:17:00,18.0,14.3,30.67,NW,326,1.0,2.0,85,0.00,,CLR,0.00,0.00,VWS V14.01,2013-11-23 01:17:00,
2013-11-22 19:22:00,17.9,14.4,30.67,NW,326,0.0,3.0,86,0.00,,CLR,0.00,0.00,VWS V14.01,2013-11-23 01:22:00,
2013-11-22 19:27:00,18.0,14.5,30.67,NW,326,0.0,0.0,86,0.00,,CLR,0.00,0.00,VWS V14.01,2013-11-23 01:27:00,
2013-11-22 19:32:00,17.9,14.2,30.68,NW,326,0.0,0.0,85,0.00,,CLR,0.00,0.00,VWS V14.01,2013-11-23 01:32:00,
2013-11-22 19:37:00,17.8,14.1,30.68,NW,326,0.0,0.0,85,0.00,,CLR,0.00,0.00,VWS V14.01,2013-11-23 01:37:00,
2013-11-22 19:42:00,17.8,14.1,30.68,NW,326,0.0,0.0,85,0.00,,CLR,0.00,0.00,VWS V14.01,2013-11-23 01:42:00,
2013-11-22 19:47:00,17.7,14.0,30.68,NW,326,0.0,0.0,85,0.00,,CLR,0.00,0.00,VWS V14.01,2013-11-23 01:47:00,
2013-11-22 19:52:00,17.6,13.9,30.68,NW,326,0.0,2.0,85,0.00,,CLR,0.00,0.00,VWS V14.01,2013-11-23 01:52:00,
2013-11-22 19:57:00,17.8,13.8,30.68,NW,326,0.0,1.0,84,0.00,,CLR,0.00,0.00,VWS V14.01,2013-11-23 01:57:00,
2013-11-22 20:02:00,17.9,13.9,30.68,NW,326,0.0,1.0,84,0.00,,CLR,0.00,0.00,VWS V14.01,2013-11-23 02:02:00,
2013-11-22 20:07:00,18.0,14.0,30.68,NW,326,0.0,1.0,84,0.00,,CLR,0.00,0.00,VWS V14.01,2013-11-23 02:07:00,
2013-11-22 20:12:00,18.2,13.9,30.68,NW,326,1.0,2.0,83,0.00,,CLR,0.00,0.00,VWS V14.01,2013-11-23 02:12:00,
2013-11-22 20:17:00,18.4,14.1,30.68,NW,326,0.0,1.0,83,0.00,,CLR,0.00,0.00,VWS V14.01,2013-11-23 02:17:00,
2013-11-22 20:22:00,18.5,13.9,30.68,NW,326,0.0,0.0,82,0.00,,CLR,0.00,0.00,VWS V14.01,2013-11-23 02:22:00,
2013-11-22 20:27:00,18.3,14.0,30.68,NW,326,0.0,0.0,83,0.00,,CLR,0.00,0.00,VWS V14.01,2013-11-23 02:27:00,
2013-11-22 20:32:00,18.1,13.8,30.68,NW,326,0.0,0.0,83,0.00,,CLR,0.00,0.00,VWS V14.01,2013-11-23 02:32:00,
2013-11-22 20:37:00,18.0,13.7,30.68,NW,326,0.0,0.0,83,0.00,,CLR,0.00,0.00,VWS V14.01,2013-11-23 02:37:00,
2013-11-22 20:42:00,17.5,13.5,30.68,NW,326,0.0,0.0,84,0.00,,CLR,0.00,0.00,VWS V14.01,2013-11-23 02:42:00,
2013-11-22 20:47:00,17.6,13.9,30.68,NW,326,0.0,0.0,85,0.00,,CLR,0.00,0.00,VWS V14.01,2013-11-23 02:47:00,
2013-11-22 20:52:00,17.5,13.8,30.68,NW,326,0.0,0.0,85,0.00,,CLR,0.00,0.00,VWS V14.01,2013-11-23 02:52:00,
2013-11-22 20:57:00,17.5,13.8,30.68,NW,326,0.0,1.0,85,0.00,,CLR,0.00,0.00,VWS V14.01,2013-11-23 02:57:00,
2013-11-22 21:02:00,17.4,13.7,30.68,NW,326,0.0,0.0,85,0.00,,CLR,0.00,0.00,VWS V14.01,2013-11-23 03:02:00,
2013-11-22 21:07:00,17.6,13.9,30.68,NW,326,0.0,0.0,85,0.00,,CLR,0.00,0.00,VWS V14.01,2013-11-23 03:07:00,
2013-11-22 21:12:00,17.7,14.0,30.68,NW,326,0.0,1.0,85,0.00,,CLR,0.00,0.00,VWS V14.01,2013-11-23 03:12:00,
2013-11-22 21:17:00,17.9,14.2,30.68,NW,326,0.0,1.0,85,0.00,,CLR,0.00,0.00,VWS V14.01,2013-11-23 03:17:00,
2013-11-22 21:22:00,18.1,14.1,30.68,NW,326,0.0,2.0,84,0.00,,CLR,0.00,0.00,VWS V14.01,2013-11-23 03:22:00,
2013-11-22 21:27:00,18.2,14.2,30.68,NW,326,0.0,1.0,84,0.00,,CLR,0.00,0.00,VWS V14.01,2013-11-23 03:27:00,
2013-11-22 21:32:00,18.0,14.0,30.68,NW,326,0.0,1.0,84,0.00,,CLR,0.00,0.00,VWS V14.01,2013-11-23 03:32:00,
2013-11-22 21:37:00,18.1,14.1,30.69,NW,326,0.0,1.0,84,0.00,,CLR,0.00,0.00,VWS V14.01,2013-11-23 03:37:00,
2013-11-22 21:42:00,17.9,13.9,30.68,NW,326,0.0,1.0,84,0.00,,CLR,0.00,0.00,VWS V14.01,2013-11-23 03:42:00,
2013-11-22 21:47:00,17.7,13.7,30.69,NW,326,0.0,1.0,84,0.00,,CLR,0.00,0.00,VWS V14.01,2013-11-23 03:47:00,
2013-11-22 21:52:00,17.5,13.5,30.68,NW,326,0.0,1.0,84,0.00,,CLR,0.00,0.00,VWS V14.01,2013-11-23 03:52:00,
2013-11-22 21:57:00,17.4,13.4,30.68,NW,326,0.0,0.0,84,0.00,,CLR,0.00,0.00,VWS V14.01,2013-11-23 03:57:00,
2013-11-22 22:02:00,17.1,13.1,30.68,NW,326,0.0,1.0,84,0.00,,CLR,0.00,0.00,VWS V14.01,2013-11-23 04:02:00,
2013-11-22 22:07:00,17.2,13.2,30.68,NW,326,0.0,1.0,84,0.00,,CLR,0.00,0.00,VWS V14.01,2013-11-23 04:07:00,
2013-11-22 22:12:00,17.1,12.8,30.68,NW,326,0.0,0.0,83,0.00,,CLR,0.00,0.00,VWS V14.01,2013-11-23 04:12:00,
2013-11-22 22:17:00,17.1,12.8,30.67,NW,326,0.0,2.0,83,0.00,,CLR,0.00,0.00,VWS V14.01,2013-11-23 04:17:00,
2013-11-22 22:22:00,17.1,12.8,30.68,NW,326,0.0,1.0,83,0.00,,CLR,0.00,0.00,VWS V14.01,2013-11-23 04:22:00,
2013-11-22 22:27:00,17.0,12.7,30.67,NW,326,0.0,2.0,83,0.00,,CLR,0.00,0.00,VWS V14.01,2013-11-23 04:27:00,
2013-11-22 22:32:00,16.9,12.6,30.68,NW,323,0.0,2.0,83,0.00,,CLR,0.00,0.00,VWS V14.01,2013-11-23 04:32:00,
2013-11-22 22:37:00,16.9,12.4,30.67,NW,323,0.0,0.0,82,0.00,,CLR,0.00,0.00,VWS V14.01,2013-11-23 04:37:00,
2013-11-22 22:42:00,16.8,12.3,30.67,NW,323,0.0,2.0,82,0.00,,CLR,0.00,0.00,VWS V14.01,2013-11-23 04:42:00,
2013-11-22 22:48:00,16.7,12.2,30.67,NW,323,0.0,2.0,82,0.00,,CLR,0.00,0.00,VWS V14.01,2013-11-23 04:48:00,
2013-11-22 22:53:00,16.5,12.0,30.67,NW,323,2.0,2.0,82,0.00,,CLR,0.00,0.00,VWS V14.01,2013-11-23 04:53:00,
2013-11-22 22:58:00,16.5,12.0,30.67,NW,323,0.0,1.0,82,0.00,,CLR,0.00,0.00,VWS V14.01,2013-11-23 04:58:00,
2013-11-22 23:01:00,16.5,12.0,30.67,NW,323,0.0,0.0,82,0.00,,CLR,0.00,0.00,VWS V14.01,2013-11-23 05:01:00,
2013-11-22 23:04:00,16.5,12.0,30.68,NW,323,1.0,1.0,82,0.00,,CLR,0.00,0.00,VWS V14.01,2013-11-23 05:04:00,
2013-11-22 23:09:00,16.4,11.9,30.68,NW,323,0.0,1.0,82,0.00,,CLR,0.00,0.00,VWS V14.01,2013-11-23 05:09:00,
2013-11-22 23:15:00,16.3,11.8,30.68,NW,323,1.0,3.0,82,0.00,,CLR,0.00,0.00,VWS V14.01,2013-11-23 05:15:00,
2013-11-22 23:20:00,16.3,11.8,30.68,NW,323,1.0,1.0,82,0.00,,CLR,0.00,0.00,VWS V14.01,2013-11-23 05:20:00,
2013-11-22 23:25:00,16.3,11.8,30.69,NW,323,1.0,2.0,82,0.00,,CLR,0.00,0.00,VWS V14.01,2013-11-23 05:25:00,
2013-11-22 23:30:00,16.2,12.0,30.68,NW,323,0.0,1.0,83,0.00,,CLR,0.00,0.00,VWS V14.01,2013-11-23 05:30:00,
2013-11-22 23:35:00,16.1,11.9,30.68,NW,323,0.0,0.0,83,0.00,,CLR,0.00,0.00,VWS V14.01,2013-11-23 05:35:00,
2013-11-22 23:40:00,16.0,11.8,30.69,NW,323,0.0,1.0,83,0.00,,CLR,0.00,0.00,VWS V14.01,2013-11-23 05:40:00,
2013-11-22 23:45:00,15.9,11.7,30.69,NW,323,0.0,1.0,83,0.00,,CLR,0.00,0.00,VWS V14.01,2013-11-23 05:45:00,
2013-11-22 23:50:00,15.8,11.6,30.69,NW,323,0.0,2.0,83,0.00,,CLR,0.00,0.00,VWS V14.01,2013-11-23 05:50:00,
2013-11-22 23:55:00,15.7,11.7,30.69,NW,323,1.0,1.0,84,0.00,,CLR,0.00,0.00,VWS V14.01,2013-11-23 05:55:00,